Погода в Антипаюте

Погода в Антипаюте : погода сейчас, прогноз погоды и архив. Всё, что Вы хотите узнать о погоде в Антипаюте!

Хотите узнать прогноз погоды в Антипаюте? Тогда Вам сюда: Погода в Антипаюте

Поиск расширенной информации на нашем сайте:

Другие новости

Новости СМИ2

Главная страница сайта

Новости сайта

03.07.2017

Напоминаем, что на нашем специализированном сайте Метеоцентр.Азия вы можете получить высокодетализированные автоматические прогнозы погоды по пунктам России, СНГ и мира в авиационном формате (включающие направление и скорость ветра, видимость, явления погоды, количество и форму облачности, нижнюю и верхнюю границу облачности).


Погода в Антипаюте - сегодня

Время (UTC), дата Ветер
(°,м/с) 
Видим.   Явления Облачность Т
(°С)
Тd
(°С)
f(%) Тe
(°С)
Pmin
(гПа)
dP
(гПа)
Po
(мм)
O2
(г/м3)
Тmin Tmax R s Состояние
почвы
06 19.02.18 010 (С) 20000 м    3/0 верхняя 
[Ci fib]
-27.4 -30.2 77 -33  1015.5  761  343  -30         
09 19.02.18 010 (С) 20000 м    ясно 
-28.3 -31.2 76 -34  1017.4  1.9  763  345           
06 20.02.18 350 (С) 20000 м    ясно 
-34.2 -37.8 70 -40  1026.9  1.2  770  357  -35.7         
09 20.02.18 010 (С) 20000 м    ясно 
-33.9 -37.5 70 -38  1028.5  1.6  771  357           
12 20.02.18 030 (СВ) 20000 м    ясно 
-36.3 -40 68 -41  1029.5  772  361           
15 20.02.18 020 (С) 20000 м    ясно 
-36.7 -40.4 68 -41  1030.3  0.8  772  362    -33.9       
18 20.02.18 020 (С) 20000 м    ясно 
-35.5 -39.1 70 -40  1030.9  0.6  765  357           
06 21.02.18 020 (С) 20000 м    ясно 
-36.6 -40.5 67 -43  1033.5  0.4  775  363  -37.9         
09 21.02.18 010 (С) 20000 м    ясно 
-35.1 -38.8 69 -39  1034.3  0.8  775  361           
12 21.02.18 320 (СЗ) 20000 м    ясно 
-37.7 -41.6 67 -39  1034.6  0.3  776  365           
15 21.02.18 270 (З) 20000 м    ясно 
-38.3 -42.3 66 -39  1033.8  -0.8  775  365    -34.8       
18 21.02.18 310 (СЗ) 20000 м    ясно 
-36 -39.8 68 -37  1033  -0.8  774  362           
21 21.02.18 310 (СЗ) 20000 м    ясно 
-36.3 -39.9 69 -37  1032.7  -0.3  774  362           
03 22.02.18 330 (СЗ) 4000 м  дымка  10/10 240 м 
[St]
-31 -34.1 74 -37  1030.8  -1.1  773  353  -38.8      69  очень
неравномерный
сухой снег
(сугробы, заносы) 
06 22.02.18 270 (З) 20000 м    8/0 средняя 
[Ac trans]
-32 -35.3 73 -33  1031.9  -0.8  774  355           
09 22.02.18 330 (СЗ) 20000 м    8/8 270 м 
[St]
-29.6 -32.6 75 -33  1029.2  -0.7  772  351           
12 22.02.18 010 (С) 20000 м    ясно 
-30.5 -33.6 74 -34  1029.1  -0.1  771  352           
15 22.02.18 020 (С) 20000 м    ясно 
-33.2 -36.5 72 -39  1028.6  -0.5  771  356    -29.1       
18 22.02.18 340 (С) 20000 м    ясно 
-33.2 -36.5 72 -37  1028  -0.6  771  356           
21 22.02.18 020 (С) 20000 м    ясно 
-24.3 -26.7 80 -29  1026.8  -1.1  770  342           
06 23.02.18 030 (СВ) 20000 м    9/0 средняя 
[Ac trans]
-17.6 -19.4 86 -25  1024  -0.7  768  332           
09 23.02.18 020 (С) 7{11}  20000 м    3/0 средняя 
[Ac trans]
-19.2 -21.3 83 -27  1023.5  -0.5  767  334           
12 23.02.18 030 (СВ) 8-11{13}  20000 м    ясно 
-24.7 -27.2 80 -34  1023.5  767  342           
18 23.02.18 030 (СВ) 20000 м    ясно 
-30.1 -33.1 75 -40  1024.8  0.5  768  350           
21 23.02.18 020 (С) 20000 м    ясно 
-31 -34.2 73 -41  1023.9  -0.9  768  351           
Время (UTC), дата Ветер
(°,м/с) 
Видим.   Явления Облачность Т
(°С)
Тd
(°С)
f(%) Тe
(°С)
Pmin
(гПа)
dP
(гПа)
Po
(мм)
O2
(г/м3)
Тmin Tmax R s Состояние
почвы

Для получения пояснительной информации подведите курсор к названию столбца.

ПОГОДА в Антипаюте - архив

Всё, что Вы хотите узнать о погоде в Антипаюте - удобно и подробно!

Выберите нужную дату (начиная с 1 января 2015* года) и нажмите кнопку "Найти".
Будут отображены архивные сводки погоды по пункту Антипаюта, начиная с указанной даты.


Отображать данные в формате CSV (для использования в таблицах Excel)


Внимание! Наш архив погоды предназначен исключительно для личного некоммерческого использования в познавательных целях. Если Вам необходимы официальные справки о состоянии погоды (для производственных, юридических, коммерческих и т.п. целей), обращайтесь в органы Росгидромета.

*Примечание: данная дата относится к архиву по метеостанциям СССР (Россия, СНГ, Балтия).
Архив по метеостанциям Зарубежной Европы и Азии (кроме Китая) хранится 10 дней, по другим регионам земного шара (Китай, Африка, Америка, Австралия, Океания) - 1 день.

Антипаюта - район местоположения метеостанции


Название, широта, долгота, высота метеостанции:
Антипаюта 69.2°ш. 77°д. 4 м над ур. моря [Российская Федерация]

Дополнительная информация

В oтличие oт бoльшинства пoгoдных сайтoв мы публикуем пoдрoбную метеoинфoрмацию в детальнoм прoфессиoнальнoм фoрмате.

Характеристики температуры и влажнoсти вoздуха измеряются на высoте 2 м в тени вдали oт зданий и деревьев.
Скoрoсть ветра измеряется на высoте 10 м (на урoвне рoста челoвека скoрoсть ветра ниже в 1.5-2 раза). Если метеoстанция нахoдится в гoрoде или в лесу, тo скoрoсть ветра занижена на 2-4 м/с пo сравнению с oткрытым местoм. Скoрoсть ветра над акватoриями крупных рек и oзёр, а также на вершинах хoлмoв на 2-5 м/с выше, чем в oбычных услoвиях.
Атмoсфернoе давление в разных тoчках местнoсти мoжет значительнo oтличаться oт давления на метеoстанции, в зависимoсти oт услoвий рельефа (при пoдъёме на 10 м давление пoнижается примернo на 1 мм рт.ст.).